loading
|

STARLINK-11146, 60729

Orbit data source: Space-Track

STARLINK-11146, 60729 is a payload satellite owned by SpaceX/Seattle (US) in LEO that was launched on Wed, 28 Aug 2024 UTC via an FALCON 9 launch vehicle from the Air Force Eastern Test Range (AFETR). Payloads include a variety of satellites, spacecraft, and rockets equipped with specific instruments for various scientific and technological missions. These include communications satellites like Starlink; space stations such as the ISS; scientific satellites like the Hubble; Earth observation satellites from companies like Planet Labs, Umbra, and HawkEye 360; GPS; miniature CubeSats for education and research; and military/defense satellites.

Loading next visibility...
Next conjunction unknown
Loading greatness...
STARLINK-11146 details
Identifier
60729, 2024-152K
Orbit
LEO
Last TLE update18 hours ago
Origin
Flag of USSpaceX/Seattle (US)
ManufacturerSpaceX/Seattle
MissionOperational spacecraft
Bus & MotorSTARLINK V2M, Unknown motor
Mass750 kg wet, ~700 kg dry
Launch date (UTC)
2024-08-28 (2 months ago)
Launch vehicle
FALCON 9
Launch site
Air Force Eastern Test Range (AFETR)
Object type
Payload
Rocket body
Debris
Shape & HBRUnknown
Radar Cross SectionLarge (>1 m²)

Expand to show TLE details & history

TLE from 18 hours ago
0 STARLINK-11146
1 60729U 24152K   24287.82613557  .00011906  00000-0  10307-3 0  9999
2 60729  53.1575 119.3578 0000960  58.9276 301.1835 15.69690071  8573
Epoch: 2024-10-13T19:49Z
Definitive object data (Epoch: 2024-10-13T19:49:38.113Z)
Latitude-0.00009°
Longitude159.08687°
Altitude360.364 km
Speed7.694 km/s
True Right ascension07h 57m 25s
True Declination0° 00' 00"
Sunlit
Object was in daylight at TLE epoch
Predictive object data (real-time)
Latitude23.85094°
Longitude174.52512°
Altitude360.028 km
Speed7.697 km/s
Apparent Right ascension09h 28m 31s
Apparent Declination-46° 46' 10"
Sunlit
Object is in daylight
Predictive observer data (real-time)
Local Sidereal Time08:51:32
Azimuth173.673° S
Elevation2.923°
Doppler factor1
Orbital elements
Apogee360.692 km
Perigee359.398 km
Semi-major axis6,738.182 km
Eccentricity0.000096
Inclination53.1575°
RAAN119.3578°
Arg. of periapsis58.9276°
True anomaly301.17409°
Mean anomaly301.1835°
Eccentric anomaly301.17879°
Mean motion3.924 °/min
BSTAR0.00010307
Period91.74 mins
No data available

STARLINK-11146 Visibility forecast

Observer location: 39.9160978°, -105.1181434

Span
Click to sort rows by Start time (UTC) header in descending order
Start Az.
Max El. time (UTC)
Max El. Az.
Max El.
End time (UTC)
End Az.
4 mins2024-10-14 15:53:31.592Z243.449° WSW2024-10-14 15:55:31.592Z313.094° NW41.189°2024-10-14 15:57:31.592Z39.543° NE
4 mins2024-10-14 22:18:31.592Z314.461° NW2024-10-14 22:20:31.592Z91.07° ESE43.572°2024-10-14 22:22:31.592Z125.777° SE